EW6470 Weather Reports


Display with metric or nautical units.
time (UTC)temp
F
wind
direction
speed
MPH
gust
MPH
rain 1hr
in
rain 24hr
in
rain mn
in
humidity
%
barometer
mb
20260905230520 63 0 0.0 1.0 0.00 0.14 0.14 75 1017.4
20260905230045 63 0 0.0 1.0 0.00 0.14 0.14 81 1017.3
20260905225518 62 0 0.0 1.0 0.00 0.14 0.14 81 1017.4
20260905225020 61 0 0.0 0.0 0.00 0.14 0.14 84 1017.5
20260905224547 61 0 0.0 0.0 0.00 0.14 0.14 84 1017.5
20260905224021 60 0 0.0 0.0 0.00 0.14 0.14 86 1017.4
20260905223522 60 0 0.0 0.0 0.00 0.14 0.14 85 1017.4
20260905223036 60 0 0.0 0.0 0.00 0.14 0.14 86 1017.4
20260905222521 60 0 0.0 0.0 0.00 0.14 0.14 84 1017.4
20260905222022 60 0 0.0 0.0 0.00 0.14 0.14 83 1017.2
20260905221539 60 0 0.0 0.0 0.00 0.14 0.14 83 1017.4
20260905221024 60 0 0.0 0.0 0.00 0.14 0.14 84 1017.3
20260905220518 60 0 0.0 0.0 0.00 0.14 0.14 82 1017.3
20260905220039 60 0 0.0 0.0 0.00 0.14 0.14 81 1017.1
20260905215517 60 0 0.0 0.0 0.00 0.14 0.14 81 1017.2
20260905215015 60 0 0.0 0.0 0.00 0.14 0.14 79 1017.1
20260905214535 61 0 0.0 0.0 0.00 0.14 0.14 84 1017.1
20260905214020 61 0 0.0 0.0 0.00 0.14 0.14 83 1017.2
20260905213520 61 0 0.0 0.0 0.00 0.14 0.14 82 1017.2
20260905213035 61 0 0.0 1.0 0.00 0.14 0.14 82 1017.0
20260905212516 61 0 0.0 1.0 0.00 0.14 0.14 79 1017.0
20260905212018 61 0 0.0 1.0 0.00 0.14 0.14 83 1017.0
20260905211535 60 0 0.0 1.0 0.00 0.14 0.14 81 1017.0
20260905211018 60 0 0.0 2.0 0.00 0.14 0.14 80 1017.1
20260905210521 60 179 0.0 4.0 0.00 0.14 0.14 79 1017.1
20260905210033 60 144 0.0 4.0 0.00 0.14 0.14 79 1017.0
20260905205520 60 163 1.0 4.0 0.00 0.14 0.14 78 1017.0
20260905205021 60 230 0.0 3.0 0.00 0.14 0.14 82 1017.1
20260905204533 60 0 0.0 3.0 0.00 0.14 0.14 83 1016.9
20260905204017 60 0 0.0 2.0 0.00 0.14 0.14 83 1016.9
20260905203518 60 0 0.0 2.0 0.00 0.14 0.14 84 1016.9
20260905203037 59 238 0.0 2.0 0.00 0.14 0.14 84 1016.8
20260905202519 59 0 0.0 0.0 0.00 0.14 0.14 88 1016.8
20260905202018 59 0 0.0 0.0 0.00 0.14 0.14 89 1016.6
20260905201536 59 0 0.0 0.0 0.00 0.14 0.14 91 1016.5
20260905201019 59 0 0.0 0.0 0.00 0.14 0.14 92 1016.5
20260905200517 59 0 0.0 0.0 0.00 0.14 0.14 92 1016.5
20260905200040 58 0 0.0 0.0 0.00 0.14 0.14 93 1016.6
20260905195517 58 0 0.0 0.0 0.00 0.14 0.14 93 1016.7
20260905195024 58 0 0.0 0.0 0.00 0.14 0.14 93 1016.6
20260905194536 57 0 0.0 0.0 0.00 0.14 0.14 93 1016.6
20260905194018 57 0 0.0 0.0 0.00 0.14 0.14 94 1016.7
20260905193516 57 0 0.0 0.0 0.00 0.14 0.14 95 1016.6
20260905193036 57 0 0.0 0.0 0.00 0.14 0.14 95 1016.5
20260905192518 56 0 0.0 0.0 0.00 0.14 0.14 95 1016.5
20260905192018 56 0 0.0 0.0 0.00 0.14 0.14 95 1016.5
20260905191534 56 0 0.0 0.0 0.00 0.14 0.14 95 1016.4
20260905191017 56 0 0.0 0.0 0.00 0.14 0.14 94 1016.4
20260905190515 56 0 0.0 1.0 0.00 0.14 0.14 95 1016.5
20260905190035 55 0 0.0 1.0 0.00 0.14 0.14 95 1016.4
20260905185519 55 0 0.0 1.0 0.00 0.14 0.14 95 1016.4
20260905185018 55 0 0.0 0.0 0.00 0.14 0.14 94 1016.3
20260905184535 55 0 0.0 0.0 0.00 0.14 0.14 94 1016.3
20260905184018 55 0 0.0 0.0 0.00 0.14 0.14 94 1016.2
20260905183519 55 0 0.0 0.0 0.00 0.14 0.14 94 1016.2
20260905183034 55 0 0.0 0.0 0.00 0.14 0.14 94 1016.2
20260905182518 55 0 0.0 0.0 0.00 0.14 0.14 94 1016.1
20260905182018 55 0 0.0 0.0 0.00 0.14 0.14 95 1016.1
20260905181541 55 0 0.0 0.0 0.00 0.14 0.14 95 1015.9
20260905181019 55 0 0.0 0.0 0.00 0.14 0.14 95 1015.9
20260905180520 55 0 0.0 0.0 0.00 0.14 0.14 95 1015.9
20260905180032 55 0 0.0 0.0 0.00 0.14 0.14 95 1015.8
20260905175516 55 0 0.0 0.0 0.00 0.14 0.14 95 1015.7
20260905175018 55 0 0.0 0.0 0.00 0.14 0.14 95 1015.7
20260905174542 54 0 0.0 0.0 0.00 0.14 0.14 95 1015.8
20260905174020 54 0 0.0 0.0 0.00 0.14 0.14 95 1015.8
20260905173518 54 0 0.0 0.0 0.00 0.14 0.14 95 1015.8
20260905173035 54 0 0.0 0.0 0.00 0.14 0.14 95 1015.9
20260905172520 54 0 0.0 0.0 0.00 0.14 0.14 95 1016.0
20260905172021 54 0 0.0 0.0 0.00 0.14 0.14 95 1015.9
20260905171541 54 0 0.0 0.0 0.00 0.14 0.14 95 1015.9
20260905171018 53 0 0.0 0.0 0.00 0.14 0.14 96 1015.8
20260905170516 53 0 0.0 0.0 0.00 0.14 0.14 96 1015.8
20260905170036 53 0 0.0 0.0 0.00 0.14 0.14 95 1015.8
20260905165517 53 0 0.0 0.0 0.00 0.14 0.14 95 1015.7
20260905165016 53 0 0.0 0.0 0.00 0.14 0.14 95 1015.7
20260905164537 53 0 0.0 0.0 0.00 0.14 0.14 95 1015.5
20260905164020 53 0 0.0 0.0 0.00 0.14 0.14 95 1015.5
20260905163520 53 0 0.0 0.0 0.00 0.14 0.14 95 1015.6
20260905163036 53 0 0.0 0.0 0.00 0.14 0.14 95 1015.7
20260905162518 53 0 0.0 0.0 0.00 0.14 0.14 95 1015.8
20260905162017 53 0 0.0 0.0 0.00 0.14 0.14 95 1015.7
20260905161534 53 0 0.0 0.0 0.00 0.14 0.14 95 1015.7
20260905161018 53 0 0.0 0.0 0.00 0.14 0.14 95 1015.8
20260905160534 53 0 0.0 0.0 0.00 0.14 0.14 95 1015.7
20260905160104 52 0 0.0 0.0 0.00 0.14 0.14 95 1015.7
20260905155518 52 0 0.0 0.0 0.00 0.14 0.14 95 1015.7
20260905155018 52 0 0.0 0.0 0.00 0.14 0.14 95 1015.6
20260905154535 52 0 0.0 0.0 0.00 0.14 0.14 95 1015.5
20260905154021 52 0 0.0 0.0 0.00 0.14 0.14 95 1015.5
20260905153518 52 0 0.0 0.0 0.01 0.14 0.14 95 1015.6
20260905153034 52 0 0.0 0.0 0.01 0.14 0.14 95 1015.6
20260905152516 52 0 0.0 0.0 0.01 0.14 0.14 95 1015.6
20260905152018 52 0 0.0 0.0 0.01 0.14 0.14 95 1015.7
20260905151535 52 0 0.0 0.0 0.01 0.14 0.14 95 1015.6
20260905151019 53 0 0.0 0.0 0.01 0.14 0.14 95 1015.7
20260905150518 53 0 0.0 0.0 0.01 0.14 0.14 95 1015.8
20260905150035 53 0 0.0 0.0 0.01 0.14 0.14 95 1015.7
20260905145517 53 0 0.0 0.0 0.01 0.14 0.14 95 1015.7
20260905145022 53 0 0.0 0.0 0.01 0.14 0.14 95 1015.6
20260905144534 53 0 0.0 0.0 0.01 0.14 0.14 95 1015.6
20260905144023 53 0 0.0 0.0 0.01 0.14 0.14 95 1015.6
20260905143518 53 0 0.0 0.0 0.01 0.13 0.13 95 1015.4
20260905143036 53 0 0.0 0.0 0.02 0.13 0.13 95 1015.4
20260905142518 53 0 0.0 0.0 0.02 0.13 0.13 95 1015.4
20260905142016 53 0 0.0 1.0 0.02 0.13 0.13 95 1015.4
20260905141541 53 0 0.0 2.0 0.03 0.13 0.13 95 1015.4
20260905141018 53 17 0.0 2.0 0.03 0.13 0.13 95 1015.3
20260905140517 53 0 0.0 1.0 0.03 0.13 0.13 95 1015.2
20260905140037 53 0 0.0 1.0 0.03 0.13 0.13 95 1015.2
20260905135516 53 0 0.0 1.0 0.04 0.13 0.13 95 1015.2
20260905135021 53 0 0.0 0.0 0.04 0.13 0.13 95 1015.2
20260905134536 53 0 0.0 1.0 0.04 0.13 0.13 94 1015.1
20260905134024 53 0 0.0 1.0 0.03 0.12 0.12 94 1015.1
20260905133518 53 279 0.0 1.0 0.04 0.12 0.12 94 1015.3
20260905133031 53 0 0.0 0.0 0.03 0.11 0.11 94 1015.1
20260905132517 53 0 0.0 0.0 0.03 0.11 0.11 94 1015.3
20260905132018 53 0 0.0 0.0 0.04 0.11 0.11 94 1015.2
20260905131533 53 0 0.0 0.0 0.05 0.10 0.10 94 1015.0
20260905131019 53 0 0.0 0.0 0.07 0.10 0.10 94 1014.9
20260905130517 53 0 0.0 1.0 0.09 0.10 0.10 94 1014.8
20260905130035 53 0 0.0 1.0 0.10 0.10 0.10 94 1014.9
20260905125518 53 88 0.0 1.0 0.09 0.09 0.09 94 1014.9
20260905125017 53 0 0.0 0.0 0.09 0.09 0.09 94 1014.9
20260905124539 53 0 0.0 0.0 0.09 0.09 0.09 93 1015.0
20260905124018 53 0 0.0 0.0 0.08 0.08 0.08 93 1014.9
20260905123518 54 0 0.0 0.0 0.08 0.08 0.08 93 1014.9
20260905123037 54 0 0.0 0.0 0.08 0.08 0.08 92 1014.9
20260905122516 54 0 0.0 0.0 0.08 0.08 0.08 92 1014.9
20260905122018 54 0 0.0 1.0 0.07 0.07 0.07 91 1014.9
20260905121534 54 0 0.0 1.0 0.05 0.05 0.05 90 1015.0
20260905121020 55 0 0.0 1.0 0.02 0.02 0.02 89 1015.1
20260905120520 55 0 0.0 2.0 0.01 0.01 0.01 88 1015.3
20260905120034 56 0 0.0 2.0 0.00 0.00 0.00 86 1015.1
20260905115518 57 0 0.0 1.0 0.00 0.00 0.00 83 1014.7
20260905115018 57 328 0.0 2.0 0.00 0.00 0.00 80 1014.4
20260905114534 58 0 0.0 2.0 0.00 0.00 0.00 77 1014.3
20260905114019 59 296 0.0 3.0 0.00 0.00 0.00 75 1013.9
20260905113517 59 78 0.0 3.0 0.00 0.00 0.00 73 1013.8
20260905113034 59 301 0.0 2.0 0.00 0.00 0.00 73 1013.7
20260905112524 59 0 0.0 1.0 0.00 0.00 0.00 73 1013.7
20260905112019 59 0 0.0 2.0 0.00 0.00 0.00 73 1013.6
20260905111533 59 284 0.0 2.0 0.00 0.00 0.00 72 1013.8
20260905111019 59 0 0.0 2.0 0.00 0.00 0.00 73 1013.7
20260905110518 59 0 0.0 1.0 0.00 0.00 0.00 73 1013.8
20260905110034 59 0 0.0 1.0 0.00 0.00 0.00 72 1014.0
20260905105517 58 224 0.0 1.0 0.00 0.00 0.00 74 1014.1
20260905105021 58 0 0.0 2.0 0.00 0.00 0.00 74 1014.0
20260905104535 58 0 0.0 2.0 0.00 0.00 0.00 75 1014.0
20260905104017 58 311 0.0 2.0 0.00 0.00 0.00 75 1014.1
20260905103516 58 223 0.0 2.0 0.00 0.00 0.00 74 1014.2
20260905103044 58 276 0.0 2.0 0.00 0.00 0.00 73 1014.3
20260905102522 57 0 0.0 0.0 0.00 0.00 0.00 73 1014.3
20260905102020 57 0 0.0 0.0 0.00 0.00 0.00 73 1014.4
20260905101534 57 0 0.0 0.0 0.00 0.00 0.00 72 1014.3
20260905101016 57 0 0.0 1.0 0.00 0.00 0.00 72 1014.5
20260905100517 57 0 0.0 2.0 0.00 0.00 0.00 73 1014.4
20260905100033 57 288 0.0 2.0 0.00 0.00 0.00 74 1014.4
20260905095520 57 0 0.0 0.0 0.00 0.00 0.00 75 1014.4
20260905095020 56 0 0.0 0.0 0.00 0.00 0.00 76 1014.6
20260905094538 56 0 0.0 0.0 0.00 0.00 0.00 77 1014.5
20260905094019 56 0 0.0 0.0 0.00 0.00 0.00 77 1014.6
20260905093524 56 0 0.0 0.0 0.00 0.00 0.00 77 1014.7
20260905093036 56 0 0.0 0.0 0.00 0.00 0.00 76 1014.7
20260905092518 57 0 0.0 0.0 0.00 0.00 0.00 76 1014.7
20260905092019 57 0 0.0 1.0 0.00 0.00 0.00 76 1014.8
20260905091608 57 0 0.0 1.0 0.00 0.00 0.00 76 1014.7
20260905091021 57 0 0.0 0.0 0.00 0.00 0.00 76 1014.8
20260905090516 57 0 0.0 0.0 0.00 0.00 0.00 76 1014.9
20260905090035 57 0 0.0 1.0 0.00 0.00 0.00 78 1015.0
20260905085516 56 0 0.0 1.0 0.00 0.00 0.00 79 1014.9
20260905085021 56 0 0.0 1.0 0.00 0.00 0.00 82 1015.1
20260905084536 56 0 0.0 1.0 0.00 0.00 0.00 84 1015.1
20260905084020 56 0 0.0 0.0 0.00 0.00 0.00 85 1015.2
20260905083519 57 0 0.0 1.0 0.00 0.00 0.00 86 1015.3
20260905083036 57 0 0.0 1.0 0.00 0.00 0.00 86 1015.3
20260905082516 57 0 0.0 1.0 0.00 0.00 0.00 85 1015.5
20260905082018 57 0 0.0 0.0 0.00 0.00 0.00 84 1015.7
20260905081534 57 0 0.0 0.0 0.00 0.00 0.00 84 1015.8
20260905081019 58 0 0.0 0.0 0.00 0.00 0.00 81 1015.8
20260905080516 58 0 0.0 0.0 0.00 0.00 0.00 80 1015.9
20260905080047 58 0 0.0 0.0 0.00 0.00 0.00 78 1015.9
20260905075516 59 0 0.0 1.0 0.00 0.00 0.00 76 1015.9
20260905075017 59 252 0.0 2.0 0.00 0.00 0.00 75 1015.9
20260905074532 59 0 0.0 2.0 0.00 0.00 0.00 74 1015.9
20260905074020 59 275 0.0 1.0 0.00 0.00 0.00 73 1015.7
20260905073518 59 0 0.0 2.0 0.00 0.00 0.00 73 1015.8
20260905073035 59 0 0.0 2.0 0.00 0.00 0.00 72 1015.6
20260905072519 59 0 0.0 2.0 0.00 0.00 0.00 76 1015.6
20260905072016 59 334 0.0 2.0 0.00 0.00 0.00 76 1015.5
20260905071536 58 269 0.0 2.0 0.00 0.00 0.00 78 1015.4
20260905071020 58 0 0.0 2.0 0.00 0.00 0.00 81 1015.3
20260905070517 58 0 0.0 0.0 0.00 0.00 0.00 80 1015.5
20260905070035 58 0 0.0 0.0 0.00 0.00 0.00 79 1015.6
20260905065519 58 0 0.0 0.0 0.00 0.00 0.00 78 1015.7
20260905065018 58 0 0.0 0.0 0.00 0.00 0.00 78 1015.7
20260905064535 58 0 0.0 0.0 0.00 0.00 0.00 77 1015.8
20260905064019 58 0 0.0 0.0 0.00 0.00 0.00 77 1015.8
20260905063519 58 0 0.0 0.0 0.00 0.00 0.00 76 1016.0
20260905063034 58 0 0.0 0.0 0.00 0.00 0.00 76 1015.9
20260905062520 58 0 0.0 0.0 0.00 0.00 0.00 78 1015.8
20260905062018 58 0 0.0 0.0 0.00 0.00 0.00 79 1015.8
20260905061550 58 0 0.0 0.0 0.00 0.00 0.00 80 1016.1
20260905061017 58 0 0.0 0.0 0.00 0.00 0.00 81 1016.0
20260905060518 58 0 0.0 1.0 0.00 0.00 0.00 81 1016.0
20260905060036 58 0 0.0 1.0 0.00 0.00 0.00 81 1016.1
20260905055519 58 0 0.0 1.0 0.00 0.00 0.00 81 1016.0
20260905055020 57 0 0.0 0.0 0.00 0.00 0.00 81 1016.1
20260905054535 57 0 0.0 0.0 0.00 0.00 0.00 80 1016.1
20260905054017 57 0 0.0 1.0 0.00 0.00 0.00 80 1016.1
20260905053516 57 0 0.0 2.0 0.00 0.00 0.00 79 1016.4
20260905053032 56 0 0.0 2.0 0.00 0.00 0.00 78 1016.4
20260905052518 56 24 0.0 2.0 0.00 0.00 0.00 78 1016.4
20260905052016 56 0 0.0 0.0 0.00 0.00 0.00 79 1016.6
20260905051539 55 0 0.0 0.0 0.00 0.00 0.00 80 1016.6
20260905051018 55 0 0.0 1.0 0.00 0.00 0.00 80 1016.8
20260905050520 55 0 0.0 1.0 0.00 0.00 0.00 83 1016.8
20260905050038 55 33 0.0 1.0 0.00 0.00 0.00 84 1017.0
20260905045518 55 34 0.0 1.0 0.00 0.00 0.00 85 1017.0
20260905045017 55 0 0.0 0.0 0.00 0.00 0.00 85 1017.1
20260905044537 56 0 0.0 0.0 0.00 0.00 0.00 84 1017.3
20260905044018 57 0 0.0 0.0 0.00 0.00 0.00 81 1017.4
20260905043518 57 0 0.0 0.0 0.00 0.00 0.00 80 1017.4
20260905043036 58 0 0.0 0.0 0.00 0.00 0.00 79 1017.5
20260905042518 58 0 0.0 0.0 0.00 0.00 0.00 78 1017.3
20260905042018 58 0 0.0 0.0 0.00 0.00 0.00 79 1017.3
20260905041533 59 0 0.0 0.0 0.00 0.00 0.00 83 1017.2
20260905041024 59 0 0.0 0.0 0.00 0.00 0.00 84 1017.2
20260905040520 59 0 0.0 0.0 0.00 0.00 0.00 83 1017.3
20260905040036 60 0 0.0 0.0 0.00 0.00 0.00 81 1017.3
20260905035519 60 0 0.0 0.0 0.00 0.00 0.00 81 1017.5
20260905035023 60 0 0.0 0.0 0.00 0.00 0.00 81 1017.3
20260905034542 60 0 0.0 0.0 0.00 0.00 0.00 81 1017.3
20260905034018 61 0 0.0 0.0 0.00 0.00 0.00 80 1017.3
20260905033516 61 0 0.0 0.0 0.00 0.00 0.00 81 1017.4
20260905033036 61 0 0.0 0.0 0.00 0.00 0.00 80 1017.2
20260905032518 61 0 0.0 0.0 0.00 0.00 0.00 81 1017.2
20260905032017 61 0 0.0 0.0 0.00 0.00 0.00 81 1017.2
20260905031533 61 0 0.0 0.0 0.00 0.00 0.00 82 1017.3
20260905031020 61 0 0.0 1.0 0.00 0.00 0.00 82 1017.3
20260905030520 62 0 0.0 1.0 0.00 0.00 0.00 81 1017.3
20260905030039 62 185 0.0 1.0 0.00 0.00 0.00 81 1017.4
20260905025517 62 0 0.0 0.0 0.00 0.00 0.00 80 1017.2
20260905025019 62 0 0.0 0.0 0.00 0.00 0.00 80 1017.4
20260905024536 63 0 0.0 0.0 0.00 0.00 0.00 79 1017.5
20260905024018 63 0 0.0 0.0 0.00 0.00 0.00 79 1017.5
20260905023518 63 0 0.0 0.0 0.00 0.00 0.00 78 1017.5
20260905023035 63 0 0.0 0.0 0.00 0.00 0.00 79 1017.6
20260905022515 64 0 0.0 0.0 0.00 0.00 0.00 77 1017.6
20260905022020 64 0 0.0 0.0 0.00 0.00 0.00 76 1017.8
20260905021534 64 0 0.0 0.0 0.00 0.00 0.00 75 1017.8
20260905021023 64 0 0.0 0.0 0.00 0.00 0.00 74 1017.9
20260905020523 64 0 0.0 0.0 0.00 0.00 0.00 74 1017.9
20260905020037 64 0 0.0 0.0 0.00 0.00 0.00 74 1018.0
20260905015519 64 0 0.0 0.0 0.00 0.00 0.00 75 1018.0
20260905015019 65 0 0.0 0.0 0.00 0.00 0.00 73 1018.0
20260905014537 65 0 0.0 0.0 0.00 0.00 0.00 71 1018.1
20260905014016 65 0 0.0 0.0 0.00 0.00 0.00 71 1018.0
20260905013518 65 0 0.0 0.0 0.00 0.00 0.00 71 1018.1
20260905013036 65 0 0.0 0.0 0.00 0.00 0.00 68 1018.0
20260905012520 66 0 0.0 0.0 0.00 0.00 0.00 68 1018.1
20260905012019 66 0 0.0 0.0 0.00 0.00 0.00 66 1018.2
20260905011541 66 0 0.0 1.0 0.00 0.00 0.00 67 1018.2
20260905011021 66 0 0.0 1.0 0.00 0.00 0.00 67 1018.3
20260905010521 66 0 0.0 0.0 0.00 0.00 0.00 65 1018.3
20260905010034 66 0 0.0 0.0 0.00 0.00 0.00 68 1018.4
20260905005518 66 0 0.0 1.0 0.00 0.00 0.00 71 1018.4
20260905005017 66 0 0.0 1.0 0.00 0.00 0.00 69 1018.6
20260905004543 65 170 0.0 1.0 0.00 0.00 0.00 68 1018.5
20260905004018 65 0 0.0 0.0 0.00 0.00 0.00 71 1018.5
20260905003519 66 0 0.0 0.0 0.00 0.00 0.00 67 1018.6
20260905003035 66 0 0.0 0.0 0.00 0.00 0.00 68 1018.8
20260905002520 66 0 0.0 0.0 0.00 0.00 0.00 68 1019.1
20260905002020 66 0 0.0 1.0 0.00 0.00 0.00 69 1019.1
20260905001548 66 0 0.0 1.0 0.00 0.00 0.00 68 1019.1
20260905001021 67 284 0.0 1.0 0.00 0.00 0.00 66 1019.1
20260905000519 68 244 0.0 1.0 0.00 0.00 0.00 62 1019.3
20260905000034 68 282 0.0 2.0 0.00 0.00 0.00 63 1019.3
20260904235519 68 284 0.0 2.0 0.00 0.00 0.00 68 1019.2
20260904235022 67 214 0.0 2.0 0.00 0.00 0.00 66 1019.2
20260904234539 66 279 0.0 2.0 0.00 0.00 0.00 67 1019.4
20260904234016 66 268 0.0 2.0 0.00 0.00 0.00 66 1019.2
20260904233518 66 0 0.0 0.0 0.00 0.00 0.00 69 1019.3
20260904233041 65 0 0.0 0.0 0.00 0.00 0.00 65 1019.5
20260904232521 65 0 0.0 1.0 0.00 0.00 0.00 68 1019.4
20260904232022 65 0 0.0 1.0 0.00 0.00 0.00 67 1019.6
20260904231545 65 0 0.0 1.0 0.00 0.00 0.00 65 1019.5
20260904231017 65 0 0.0 1.0 0.00 0.00 0.00 68 1019.5